SCP
0 0 0 0 0 0 0 0 0 0 0 0 0 0 0 0 0 0 0 0 0 0 0 0 0 0 0 0 0 0 0 0 0 0 0 0 0 0 0 0 0 0 0 0
0 0 0 0 0 0 0 0 0 0 0 0 0 0 0 0 0 0 0 0 0 0 0 0 0 0 0 0 0 0 0 0 0 0 0 0 0 0 0 0 0 0 -0 0
0 0 0 0 0 0 0 0 0 0 0 0 0 0 0 0 0 0 0 0 0 0 0 0 0 0 0 0 0 0 0 0 0 0 0 0 0 0 0 0 0 -0 0 0
0 0 0 0 0 0 0 0 0 0 0 0 0 0 0 0 0 0 0 0 0 0 0 0 0 0 0 0 0 0 0 0 0 0 0 0 0 0 0 0 0 -0 0 0
0 0 0 0 0 0 0 0 0 0 0 0 0 0 0 0 0 0 0 0 0 0 0 0 0 0 0 0 0 0 0 0 0 0 0 0 0 0 0 0 0 0 0 0
0 0 0 0 0 0 0 0 0 0 0 0 0 0 0 0 0 0 0 0 0 0 0 0 0 0 0 0 0 0 0 0 0 0 0 0 0 0 0 0 -0 0 0 0
0 0 0 0 0 0 0 0 0 0 0 0 0 0 0 0 0 0 0 0 0 0 0 0 0 0 0 0 0 0 0 0 0 0 0 0 0 0 0 0 0 -0 -0 0
0 0 0 0 0 0 0 0 0 0 0 0 0 0 0 0 0 0 0 0 0 0 0 0 0 0 0 0 0 0 0 0 0 0 0 0 0 0 0 -0 0 0 -0 0
0 0 0 0 0 0 0 0 0 0 0 0 0 0 0 0 0 0 0 0 0 1 1 0 0 0 0 0 0 0 0 0 0 0 0 0 0 -0 -0 -0 -0 0 0 0
0 0 0 0 0 0 0 0 0 0 0 0 0 0 0 0 0 0 0 1 1 1 1 1 0 0 0 0 0 0 0 0 0 -0 0 0 0 0 0 -0 -0 -0 -0 -0
0 0 0 0 0 0 0 0 0 0 0 0 0 0 0 0 0 0 1 1 1 1 1 1 1 0 0 0 0 0 0 0 0 0 0 0 0 0 0 0 0 -0 -0 0
0 0 0 0 0 0 0 0 0 0 0 0 0 0 0 0 0 0 1 1 1 1 1 1 1 0 0 0 0 0 0 0 0 0 0 0 0 0 0 0 -0 -0 0 0
0 0 0 0 0 0 0 0 0 0 0 0 0 0 0 0 0 0 1 2 1 1 1 1 1 0 0 0 0 0 0 0 0 0 0 0 0 -0 -0 0 0 -0 -0 0
0 0 0 0 0 0 0 0 0 0 0 0 0 0 0 0 0 1 1 1 1 1 1 1 1 0 0 0 0 0 0 0 0 0 0 0 0 -0 -0 0 -0 -0 -0 -0
0 0 0 0 0 0 0 0 0 0 0 0 0 0 0 0 0 1 1 1 1 1 1 1 1 0 0 0 0 0 0 0 0 0 0 0 0 -0 0 0 0 0 0 -0
0 0 0 0 0 0 0 0 0 0 0 0 0 0 0 0 0 0 0 0 1 1 1 1 0 0 0 0 0 0 0 0 0 0 0 0 0 0 0 0 0 -0 -0 -0
0 0 0 0 0 0 0 0 0 0 0 0 0 0 0 -0 -0 0 -0 0 1 1 1 0 0 0 0 0 0 0 0 0 0 0 0 0 0 0 0 0 0 0 0 0
0 0 0 0 0 0 0 0 0 0 0 0 0 -0 -0 -0 0 -0 0 0 0 1 1 0 0 0 0 0 0 0 0 0 0 0 0 0 0 0 0 0 0 0 0 0
0 0 0 0 0 0 0 0 0 0 0 0 -0 -0 -0 -0 0 0 0 0 0 0 0 0 0 0 0 0 0 0 0 0 0 0 0 0 0 0 0 0 0 0 0 0
0 0 0 0 0 0 0 0 0 0 0 0 -0 -0 0 0 0 0 0 0 0 0 0 0 0 0 0 -0 0 0 0 0 0 0 0 0 0 0 0 0 0 0 0 0
0 0 0 0 0 0 0 -0 0 0 0 0 0 0 0 0 0 0 0 0 0 0 0 0 0 0 0 0 0 0 0 0 0 0 0 0 0 0 0 0 0 0 0 0
0 0 0 0 0 0 0 0 0 0 0 0 0 -0 -0 -0 -0 -0 0 0 0 -0 0 0 0 0 0 0 0 0 0 0 0 0 0 0 0 0 0 0 0 0 0 0
0 0 0 0 0 0 -0 -0 0 0 0 0 -0 -0 -0 0 0 0 0 0 0 -0 0 0 0 0 0 0 0 0 0 0 0 0 0 0 0 0 0 0 0 0 0 0
-0 -0 -0 0 -0 -0 -0 -0 -0 -0 -0 -0 0 0 0 0 0 0 -0 0 0 -0 0 0 0 0 0 0 0 0 0 0 0 0 0 0 0 0 0 0 0 0 0 0
-0 -0 0 -0 0 0 0 -0 0 0 -0 0 0 0 -0 -0 0 0 0 0 -0 0 0 0 -0 0 0 0 0 0 0 0 0 0 0 0 0 0 0 0 0 0 0 0
-0 0 -0 -0 0 0 0 0 0 0 0 0 0 0 0 -0 -0 -0 -0 -0 -0 0 0 0 0 0 0 0 0 0 0 0 0 0 0 0 0 0 0 0 0 0 0 0
-0 0 -0 -0 0 0 0 0 0 0 0 -0 0 0 -0 -0 -0 -0 -0 -0 0 0 0 0 0 0 0 0 0 0 0 0 0 0 0 0 0 0 0 0 0 0 0 0
Wind_Speed_500mb
1 5 12 19 30 28 22 13 15 8 13 6 5 11 25 29 31 37 42 48 53 50 43 35 25 24 30 33 39 39 40 41 44 44 47 50 52 56 58 58 64 70 94 96
7 3 7 15 22 24 14 10 7 10 16 11 16 12 15 33 40 49 51 51 52 49 39 29 23 24 26 35 36 34 38 40 45 46 51 51 56 53 52 54 66 89 101 99
10 3 5 8 24 27 14 13 15 18 16 6 12 21 30 36 44 53 51 49 54 45 32 25 23 21 29 32 31 34 38 40 40 49 51 48 51 47 49 59 74 88 103 91
7 9 15 5 1 13 21 12 22 9 12 14 20 23 33 34 40 46 44 54 50 36 30 25 19 25 28 30 29 35 38 42 39 45 47 46 41 47 54 59 71 83 95 84
9 14 6 3 7 8 16 17 23 18 12 12 9 12 31 31 35 44 53 50 38 30 26 21 23 24 30 27 29 33 35 36 36 44 46 41 41 50 50 51 64 78 88 91
7 12 20 3 3 10 8 13 25 12 20 15 8 11 20 22 31 47 50 39 38 32 25 29 24 30 30 23 27 30 29 32 37 44 36 40 38 46 49 46 63 72 83 96
11 13 5 0 10 3 16 8 25 17 24 23 19 24 20 15 40 46 40 41 35 31 31 26 30 31 28 23 26 27 27 25 27 31 35 34 33 43 47 45 59 74 80 96
5 8 18 3 7 10 5 5 13 18 22 26 37 25 26 22 47 46 46 41 36 34 32 34 35 32 27 23 26 24 24 19 21 30 33 38 26 41 43 38 52 65 80 90
10 3 13 14 23 11 7 3 8 17 25 24 21 29 22 29 50 51 47 43 40 37 39 38 36 32 29 20 26 20 22 19 20 26 27 35 31 27 35 37 44 64 71 79
7 13 18 18 6 4 4 2 9 19 21 19 21 19 29 31 42 46 41 43 44 43 45 43 37 34 31 24 27 26 22 17 14 18 24 25 26 17 20 29 40 41 63 63
5 6 10 11 14 3 6 9 15 20 24 28 29 24 27 41 42 48 41 46 46 47 48 44 37 36 30 26 26 23 22 21 20 19 21 25 31 22 12 23 28 38 49 54
7 10 7 8 14 7 19 24 26 31 36 34 33 37 36 40 51 53 52 46 44 46 49 46 39 34 29 24 23 22 18 17 17 16 16 22 26 22 19 8 23 35 31 40
9 15 18 15 20 30 33 27 31 30 35 45 55 49 47 48 47 51 44 38 41 42 46 43 37 31 26 23 23 21 17 17 20 18 14 16 19 22 18 10 16 29 36 30
18 15 15 21 23 30 37 34 35 39 32 36 47 52 50 48 43 38 41 48 47 41 50 39 33 27 24 22 18 15 17 18 18 17 8 7 22 18 12 7 11 21 29 35
31 34 38 40 47 55 53 47 41 37 35 35 43 44 43 41 42 42 43 50 46 44 40 39 31 27 24 20 15 15 14 9 8 6 4 6 13 18 17 11 14 20 24 28
34 38 39 37 42 43 45 47 39 35 33 35 41 37 38 42 41 53 51 42 37 33 35 34 32 30 24 21 20 12 16 11 7 9 11 12 11 12 7 11 13 16 21 26
23 30 26 28 32 37 35 30 29 33 31 36 38 41 46 38 36 35 44 40 30 31 31 33 32 31 26 28 21 14 13 6 5 8 10 12 8 2 11 14 11 12 17 22
27 29 31 34 41 36 28 23 21 25 31 36 40 45 37 15 20 41 51 27 23 27 27 29 35 31 30 30 23 17 13 9 5 4 3 1 6 13 12 10 11 10 13 15
31 32 27 24 20 19 19 18 18 23 27 32 36 33 16 12 10 24 22 22 17 12 14 24 32 30 33 20 17 17 14 9 7 5 6 10 13 10 8 7 7 8 11 16
10 13 11 10 16 20 27 29 24 20 21 21 21 12 7 11 11 7 6 9 10 14 15 18 14 12 19 27 14 15 11 8 9 13 15 11 8 6 5 3 5 9 11 13
16 13 7 6 10 17 17 14 6 13 16 11 7 8 14 14 13 8 10 14 16 14 20 27 17 15 11 16 16 16 16 18 19 17 12 8 6 4 3 5 8 10 13 16
11 15 15 14 13 11 14 16 14 10 4 5 8 9 6 9 14 21 19 13 13 14 22 22 22 24 24 19 25 25 20 16 10 6 4 5 6 4 5 6 10 12 15 17
18 18 15 17 20 20 18 18 17 12 11 11 15 14 18 22 22 21 25 36 34 29 30 26 25 27 25 23 19 15 10 8 7 7 7 8 11 12 11 10 10 13 14 17
14 17 27 27 22 27 35 30 20 17 15 14 17 26 29 38 40 38 38 36 42 34 29 31 25 17 12 13 12 10 9 8 10 13 14 13 12 13 14 15 16 17 18 21
22 29 31 30 33 42 46 47 54 54 53 55 52 51 46 41 41 40 31 29 25 30 28 22 15 13 14 15 14 14 13 15 17 17 16 15 16 18 20 22 24 25 27 28
27 27 28 32 34 35 39 43 47 46 45 47 47 47 47 43 38 35 30 27 25 23 22 21 16 15 16 16 16 17 17 18 17 15 15 16 18 21 25 27 29 31 32 32
30 31 31 30 32 32 34 31 32 34 35 38 42 41 38 35 31 28 27 27 26 25 21 17 15 13 13 14 14 16 16 15 14 12 11 13 16 18 22 25 29 33 37 40
Wind_Direction_500mb
76 208 192 198 181 175 198 187 222 232 219 236 270 252 242 227 213 208 204 200 197 190 196 210 229 260 282 308 309 300 300 309 319 316 322 321 321 319 318 319 320 320 325 316
142 150 169 172 175 177 189 178 199 177 248 250 262 266 241 225 213 209 206 197 190 194 203 215 237 268 297 300 297 300 308 314 325 323 322 325 326 324 326 327 330 332 330 323
180 45 134 224 201 192 188 190 196 202 233 207 264 256 258 245 224 218 203 187 191 200 209 220 245 278 292 298 302 311 313 313 322 330 326 322 327 330 324 329 336 339 345 333
133 161 223 84 310 224 215 201 207 225 217 233 255 276 274 259 232 213 195 193 200 201 207 223 250 273 289 301 304 307 310 315 317 325 331 330 335 335 332 328 335 345 352 341
191 214 326 181 159 178 197 224 216 226 232 242 288 299 283 255 235 207 198 199 200 198 206 224 254 278 282 291 295 301 309 319 319 321 324 331 342 340 343 334 341 349 357 349
156 226 236 205 91 353 161 231 36 325 284 267 189 275 280 259 213 198 199 196 189 195 213 232 252 263 271 279 289 298 312 325 326 329 335 338 344 343 343 344 355 355 358 351
187 227 245 312 324 166 214 263 336 339 309 255 215 247 280 248 195 195 195 189 190 210 224 240 252 264 269 279 293 301 315 327 343 352 348 345 345 345 347 342 354 354 1 354
146 213 244 119 137 221 31 7 324 345 329 271 248 272 272 239 201 195 193 198 206 221 233 244 253 262 268 283 291 301 320 315 339 349 353 358 351 351 350 352 359 2 4 357
221 148 120 93 109 104 85 220 2 344 347 335 282 253 249 225 202 203 206 209 217 228 237 245 255 264 268 281 283 295 319 297 298 342 353 11 349 327 359 11 10 9 7 1
181 178 180 168 153 104 74 31 11 2 356 351 328 292 249 241 219 213 223 229 228 234 238 244 255 262 267 268 269 287 299 291 310 321 337 346 347 344 359 13 16 7 12 13
225 194 187 237 210 243 12 353 334 323 333 340 335 321 282 256 246 230 247 235 235 238 245 247 253 258 256 260 268 276 289 268 298 322 319 332 333 333 320 356 6 21 19 22
216 165 212 179 189 263 304 303 305 309 302 299 310 315 316 277 260 255 249 241 238 246 250 249 250 251 249 250 265 273 279 284 295 311 311 347 331 339 353 348 9 24 28 18
269 249 232 233 256 291 297 298 283 282 290 291 289 297 299 301 277 253 224 228 243 255 258 252 244 244 243 245 262 277 270 279 292 294 311 329 342 342 5 10 9 25 30 29
258 239 255 269 285 300 295 290 281 287 278 298 297 294 289 296 271 241 222 236 256 261 264 240 235 238 238 251 261 251 260 287 285 289 276 344 347 346 346 9 25 39 40 46
270 272 279 288 285 281 279 281 281 278 277 289 295 302 286 283 253 236 256 255 256 260 241 226 235 227 236 241 224 230 264 240 314 340 234 320 313 4 8 14 47 55 56 54
282 276 275 277 281 285 277 265 265 272 280 282 297 300 307 282 266 257 264 266 256 230 233 230 231 223 225 221 208 232 207 228 276 320 326 318 325 338 29 61 67 67 58 44
294 281 276 287 297 298 286 277 273 275 272 284 294 308 315 298 284 283 279 256 224 219 224 230 222 217 212 209 207 202 211 230 297 320 304 304 320 106 117 104 87 66 52 41
307 301 292 293 300 304 292 278 277 281 276 290 299 305 315 303 249 254 269 218 220 222 220 218 220 223 207 207 208 210 214 234 261 279 304 120 125 139 131 115 93 66 46 25
298 289 287 292 301 315 315 304 298 282 279 280 287 299 315 24 139 204 210 208 194 199 206 218 219 224 218 198 209 226 214 204 208 217 167 137 124 115 107 88 58 29 19 16
346 325 283 292 315 319 321 304 278 292 293 298 279 240 257 324 328 295 226 189 192 203 191 165 159 145 204 221 210 204 184 174 177 154 137 131 127 117 94 67 42 38 31 17
338 17 16 354 4 0 3 2 308 282 300 298 272 280 314 295 274 260 194 169 135 132 130 146 156 162 212 166 162 173 165 151 138 130 128 118 107 109 88 38 8 359 355 349
43 37 22 21 22 1 4 20 24 12 306 260 239 248 229 186 171 162 165 176 173 185 139 135 126 148 142 160 159 151 146 143 142 135 120 110 103 86 43 0 349 348 352 353
53 49 54 54 47 40 31 26 34 55 89 105 128 142 160 159 153 155 132 123 124 119 112 113 123 129 140 145 138 134 128 121 120 121 114 97 80 67 55 32 12 1 357 355
81 82 68 61 61 60 64 71 72 60 89 100 133 136 133 135 124 117 113 114 117 115 120 122 121 123 129 124 121 113 106 104 107 108 99 84 60 41 28 22 18 13 10 9
96 88 82 79 78 86 88 85 82 91 94 87 97 102 101 100 100 107 106 106 109 121 129 120 121 114 110 107 104 96 96 106 108 102 87 73 63 54 46 40 33 26 21 15
87 99 101 92 93 93 91 90 92 93 98 103 108 111 110 104 104 107 108 111 118 128 132 128 118 105 102 106 101 90 97 106 109 106 95 84 72 64 55 48 41 35 28 20
94 99 100 101 104 107 102 89 90 93 100 102 108 112 112 114 116 117 116 118 121 121 120 122 122 113 112 120 107 90 100 122 120 120 100 80 69 59 49 43 36 30 24 19
Wind_Speed_850mb
1 5 12 19 30 28 22 13 15 8 13 6 5 11 25 29 31 37 42 48 53 50 43 35 25 24 30 33 39 39 40 41 44 44 47 50 52 56 58 58 64 70 94 96
7 3 7 15 22 24 14 10 7 10 16 11 16 12 15 33 40 49 51 51 52 49 39 29 23 24 26 35 36 34 38 40 45 46 51 51 56 53 52 54 66 89 101 99
10 3 5 8 24 27 14 13 15 18 16 6 12 21 30 36 44 53 51 49 54 45 32 25 23 21 29 32 31 34 38 40 40 49 51 48 51 47 49 59 74 88 103 91
7 9 15 5 1 13 21 12 22 9 12 14 20 23 33 34 40 46 44 54 50 36 30 25 19 25 28 30 29 35 38 42 39 45 47 46 41 47 54 59 71 83 95 84
9 14 6 3 7 8 16 17 23 18 12 12 9 12 31 31 35 44 53 50 38 30 26 21 23 24 30 27 29 33 35 36 36 44 46 41 41 50 50 51 64 78 88 91
7 12 20 3 3 10 8 13 25 12 20 15 8 11 20 22 31 47 50 39 38 32 25 29 24 30 30 23 27 30 29 32 37 44 36 40 38 46 49 46 63 72 83 96
11 13 5 0 10 3 16 8 25 17 24 23 19 24 20 15 40 46 40 41 35 31 31 26 30 31 28 23 26 27 27 25 27 31 35 34 33 43 47 45 59 74 80 96
5 8 18 3 7 10 5 5 13 18 22 26 37 25 26 22 47 46 46 41 36 34 32 34 35 32 27 23 26 24 24 19 21 30 33 38 26 41 43 38 52 65 80 90
10 3 13 14 23 11 7 3 8 17 25 24 21 29 22 29 50 51 47 43 40 37 39 38 36 32 29 20 26 20 22 19 20 26 27 35 31 27 35 37 44 64 71 79
7 13 18 18 6 4 4 2 9 19 21 19 21 19 29 31 42 46 41 43 44 43 45 43 37 34 31 24 27 26 22 17 14 18 24 25 26 17 20 29 40 41 63 63
5 6 10 11 14 3 6 9 15 20 24 28 29 24 27 41 42 48 41 46 46 47 48 44 37 36 30 26 26 23 22 21 20 19 21 25 31 22 12 23 28 38 49 54
7 10 7 8 14 7 19 24 26 31 36 34 33 37 36 40 51 53 52 46 44 46 49 46 39 34 29 24 23 22 18 17 17 16 16 22 26 22 19 8 23 35 31 40
9 15 18 15 20 30 33 27 31 30 35 45 55 49 47 48 47 51 44 38 41 42 46 43 37 31 26 23 23 21 17 17 20 18 14 16 19 22 18 10 16 29 36 30
18 15 15 21 23 30 37 34 35 39 32 36 47 52 50 48 43 38 41 48 47 41 50 39 33 27 24 22 18 15 17 18 18 17 8 7 22 18 12 7 11 21 29 35
31 34 38 40 47 55 53 47 41 37 35 35 43 44 43 41 42 42 43 50 46 44 40 39 31 27 24 20 15 15 14 9 8 6 4 6 13 18 17 11 14 20 24 28
34 38 39 37 42 43 45 47 39 35 33 35 41 37 38 42 41 53 51 42 37 33 35 34 32 30 24 21 20 12 16 11 7 9 11 12 11 12 7 11 13 16 21 26
23 30 26 28 32 37 35 30 29 33 31 36 38 41 46 38 36 35 44 40 30 31 31 33 32 31 26 28 21 14 13 6 5 8 10 12 8 2 11 14 11 12 17 22
27 29 31 34 41 36 28 23 21 25 31 36 40 45 37 15 20 41 51 27 23 27 27 29 35 31 30 30 23 17 13 9 5 4 3 1 6 13 12 10 11 10 13 15
31 32 27 24 20 19 19 18 18 23 27 32 36 33 16 12 10 24 22 22 17 12 14 24 32 30 33 20 17 17 14 9 7 5 6 10 13 10 8 7 7 8 11 16
10 13 11 10 16 20 27 29 24 20 21 21 21 12 7 11 11 7 6 9 10 14 15 18 14 12 19 27 14 15 11 8 9 13 15 11 8 6 5 3 5 9 11 13
16 13 7 6 10 17 17 14 6 13 16 11 7 8 14 14 13 8 10 14 16 14 20 27 17 15 11 16 16 16 16 18 19 17 12 8 6 4 3 5 8 10 13 16
11 15 15 14 13 11 14 16 14 10 4 5 8 9 6 9 14 21 19 13 13 14 22 22 22 24 24 19 25 25 20 16 10 6 4 5 6 4 5 6 10 12 15 17
18 18 15 17 20 20 18 18 17 12 11 11 15 14 18 22 22 21 25 36 34 29 30 26 25 27 25 23 19 15 10 8 7 7 7 8 11 12 11 10 10 13 14 17
14 17 27 27 22 27 35 30 20 17 15 14 17 26 29 38 40 38 38 36 42 34 29 31 25 17 12 13 12 10 9 8 10 13 14 13 12 13 14 15 16 17 18 21
22 29 31 30 33 42 46 47 54 54 53 55 52 51 46 41 41 40 31 29 25 30 28 22 15 13 14 15 14 14 13 15 17 17 16 15 16 18 20 22 24 25 27 28
27 27 28 32 34 35 39 43 47 46 45 47 47 47 47 43 38 35 30 27 25 23 22 21 16 15 16 16 16 17 17 18 17 15 15 16 18 21 25 27 29 31 32 32
30 31 31 30 32 32 34 31 32 34 35 38 42 41 38 35 31 28 27 27 26 25 21 17 15 13 13 14 14 16 16 15 14 12 11 13 16 18 22 25 29 33 37 40
Wind_Direction_850mb
76 208 192 198 181 175 198 187 222 232 219 236 270 252 242 227 213 208 204 200 197 190 196 210 229 260 282 308 309 300 300 309 319 316 322 321 321 319 318 319 320 320 325 316
142 150 169 172 175 177 189 178 199 177 248 250 262 266 241 225 213 209 206 197 190 194 203 215 237 268 297 300 297 300 308 314 325 323 322 325 326 324 326 327 330 332 330 323
180 45 134 224 201 192 188 190 196 202 233 207 264 256 258 245 224 218 203 187 191 200 209 220 245 278 292 298 302 311 313 313 322 330 326 322 327 330 324 329 336 339 345 333
133 161 223 84 310 224 215 201 207 225 217 233 255 276 274 259 232 213 195 193 200 201 207 223 250 273 289 301 304 307 310 315 317 325 331 330 335 335 332 328 335 345 352 341
191 214 326 181 159 178 197 224 216 226 232 242 288 299 283 255 235 207 198 199 200 198 206 224 254 278 282 291 295 301 309 319 319 321 324 331 342 340 343 334 341 349 357 349
156 226 236 205 91 353 161 231 36 325 284 267 189 275 280 259 213 198 199 196 189 195 213 232 252 263 271 279 289 298 312 325 326 329 335 338 344 343 343 344 355 355 358 351
187 227 245 312 324 166 214 263 336 339 309 255 215 247 280 248 195 195 195 189 190 210 224 240 252 264 269 279 293 301 315 327 343 352 348 345 345 345 347 342 354 354 1 354
146 213 244 119 137 221 31 7 324 345 329 271 248 272 272 239 201 195 193 198 206 221 233 244 253 262 268 283 291 301 320 315 339 349 353 358 351 351 350 352 359 2 4 357
221 148 120 93 109 104 85 220 2 344 347 335 282 253 249 225 202 203 206 209 217 228 237 245 255 264 268 281 283 295 319 297 298 342 353 11 349 327 359 11 10 9 7 1
181 178 180 168 153 104 74 31 11 2 356 351 328 292 249 241 219 213 223 229 228 234 238 244 255 262 267 268 269 287 299 291 310 321 337 346 347 344 359 13 16 7 12 13
225 194 187 237 210 243 12 353 334 323 333 340 335 321 282 256 246 230 247 235 235 238 245 247 253 258 256 260 268 276 289 268 298 322 319 332 333 333 320 356 6 21 19 22
216 165 212 179 189 263 304 303 305 309 302 299 310 315 316 277 260 255 249 241 238 246 250 249 250 251 249 250 265 273 279 284 295 311 311 347 331 339 353 348 9 24 28 18
269 249 232 233 256 291 297 298 283 282 290 291 289 297 299 301 277 253 224 228 243 255 258 252 244 244 243 245 262 277 270 279 292 294 311 329 342 342 5 10 9 25 30 29
258 239 255 269 285 300 295 290 281 287 278 298 297 294 289 296 271 241 222 236 256 261 264 240 235 238 238 251 261 251 260 287 285 289 276 344 347 346 346 9 25 39 40 46
270 272 279 288 285 281 279 281 281 278 277 289 295 302 286 283 253 236 256 255 256 260 241 226 235 227 236 241 224 230 264 240 314 340 234 320 313 4 8 14 47 55 56 54
282 276 275 277 281 285 277 265 265 272 280 282 297 300 307 282 266 257 264 266 256 230 233 230 231 223 225 221 208 232 207 228 276 320 326 318 325 338 29 61 67 67 58 44
294 281 276 287 297 298 286 277 273 275 272 284 294 308 315 298 284 283 279 256 224 219 224 230 222 217 212 209 207 202 211 230 297 320 304 304 320 106 117 104 87 66 52 41
307 301 292 293 300 304 292 278 277 281 276 290 299 305 315 303 249 254 269 218 220 222 220 218 220 223 207 207 208 210 214 234 261 279 304 120 125 139 131 115 93 66 46 25
298 289 287 292 301 315 315 304 298 282 279 280 287 299 315 24 139 204 210 208 194 199 206 218 219 224 218 198 209 226 214 204 208 217 167 137 124 115 107 88 58 29 19 16
346 325 283 292 315 319 321 304 278 292 293 298 279 240 257 324 328 295 226 189 192 203 191 165 159 145 204 221 210 204 184 174 177 154 137 131 127 117 94 67 42 38 31 17
338 17 16 354 4 0 3 2 308 282 300 298 272 280 314 295 274 260 194 169 135 132 130 146 156 162 212 166 162 173 165 151 138 130 128 118 107 109 88 38 8 359 355 349
43 37 22 21 22 1 4 20 24 12 306 260 239 248 229 186 171 162 165 176 173 185 139 135 126 148 142 160 159 151 146 143 142 135 120 110 103 86 43 0 349 348 352 353
53 49 54 54 47 40 31 26 34 55 89 105 128 142 160 159 153 155 132 123 124 119 112 113 123 129 140 145 138 134 128 121 120 121 114 97 80 67 55 32 12 1 357 355
81 82 68 61 61 60 64 71 72 60 89 100 133 136 133 135 124 117 113 114 117 115 120 122 121 123 129 124 121 113 106 104 107 108 99 84 60 41 28 22 18 13 10 9
96 88 82 79 78 86 88 85 82 91 94 87 97 102 101 100 100 107 106 106 109 121 129 120 121 114 110 107 104 96 96 106 108 102 87 73 63 54 46 40 33 26 21 15
87 99 101 92 93 93 91 90 92 93 98 103 108 111 110 104 104 107 108 111 118 128 132 128 118 105 102 106 101 90 97 106 109 106 95 84 72 64 55 48 41 35 28 20
94 99 100 101 104 107 102 89 90 93 100 102 108 112 112 114 116 117 116 118 121 121 120 122 122 113 112 120 107 90 100 122 120 120 100 80 69 59 49 43 36 30 24 19